Year,Month,Day,Hour,Minute,Value (Times are PST for windgust in km/hr)
2018,12,20,00,03,1.60
2018,12,20,00,11,1.60
2018,12,20,00,29,1.60
2018,12,20,00,35,4.80
2018,12,20,00,36,4.80
2018,12,20,00,37,6.40
2018,12,20,00,38,6.40
2018,12,20,00,39,3.20
2018,12,20,00,43,6.40
2018,12,20,00,44,4.80
2018,12,20,00,45,6.40
2018,12,20,00,46,9.60
2018,12,20,00,47,17.70
2018,12,20,00,48,22.50
2018,12,20,00,49,16.10
2018,12,20,00,50,9.60
2018,12,20,00,51,16.10
2018,12,20,00,52,6.40
2018,12,20,00,53,12.90
2018,12,20,00,54,16.10
2018,12,20,00,55,9.60
2018,12,20,00,56,24.20
2018,12,20,00,57,22.50
2018,12,20,00,58,14.50
2018,12,20,00,59,11.30
2018,12,20,01,00,12.90
2018,12,20,01,01,17.70
2018,12,20,01,02,16.10
2018,12,20,01,03,14.50
2018,12,20,01,04,22.50
2018,12,20,01,05,14.50
2018,12,20,01,06,30.60
2018,12,20,01,07,24.20
2018,12,20,01,08,16.10
2018,12,20,01,09,20.90
2018,12,20,01,10,17.70
2018,12,20,01,11,12.90
2018,12,20,01,12,20.90
2018,12,20,01,13,12.90
2018,12,20,01,14,20.90
2018,12,20,01,15,24.20
2018,12,20,01,16,16.10
2018,12,20,01,17,25.70
2018,12,20,01,18,11.30
2018,12,20,01,19,16.10
2018,12,20,01,20,20.90
2018,12,20,01,21,14.50
2018,12,20,01,22,16.10
2018,12,20,01,23,22.50
2018,12,20,01,24,16.10
2018,12,20,01,25,14.50
2018,12,20,01,26,24.20
2018,12,20,01,27,14.50
2018,12,20,01,28,17.70
2018,12,20,01,29,11.30
2018,12,20,01,30,17.70
2018,12,20,01,31,12.90
2018,12,20,01,32,11.30
2018,12,20,01,33,16.10
2018,12,20,01,34,16.10
2018,12,20,01,35,11.30
2018,12,20,01,36,14.50
2018,12,20,01,37,17.70
2018,12,20,01,38,16.10
2018,12,20,01,39,16.10
2018,12,20,01,40,17.70
2018,12,20,01,41,14.50
2018,12,20,01,42,14.50
2018,12,20,01,43,9.60
2018,12,20,01,44,8.10
2018,12,20,01,45,8.10
2018,12,20,01,46,6.40
2018,12,20,01,47,14.50
2018,12,20,01,48,6.40
2018,12,20,01,49,8.10
2018,12,20,01,50,8.10
2018,12,20,01,51,17.70
2018,12,20,01,52,19.30
2018,12,20,01,53,20.90
2018,12,20,01,54,20.90
2018,12,20,01,55,12.90
2018,12,20,01,56,12.90
2018,12,20,01,57,14.50
2018,12,20,01,58,14.50
2018,12,20,01,59,12.90
2018,12,20,02,00,16.10
2018,12,20,02,01,12.90
2018,12,20,02,02,11.30
2018,12,20,02,03,11.30
2018,12,20,02,04,14.50
2018,12,20,02,05,12.90
2018,12,20,02,06,11.30
2018,12,20,02,07,12.90
2018,12,20,02,08,19.30
2018,12,20,02,09,9.60
2018,12,20,02,10,8.10
2018,12,20,02,11,6.40
2018,12,20,02,12,14.50
2018,12,20,02,13,12.90
2018,12,20,02,14,9.60
2018,12,20,02,15,8.10
2018,12,20,02,16,8.10
2018,12,20,02,17,9.60
2018,12,20,02,18,11.30
2018,12,20,02,19,16.10
2018,12,20,02,20,9.60
2018,12,20,02,21,11.30
2018,12,20,02,22,11.30
2018,12,20,02,23,16.10
2018,12,20,02,24,9.60
2018,12,20,02,25,9.60
2018,12,20,02,26,11.30
2018,12,20,02,27,12.90
2018,12,20,02,28,4.80
2018,12,20,02,29,6.40
2018,12,20,02,30,11.30
2018,12,20,02,31,4.80
2018,12,20,02,32,8.10
2018,12,20,02,33,8.10
2018,12,20,02,34,6.40
2018,12,20,02,35,11.30
2018,12,20,02,36,8.10
2018,12,20,02,37,14.50
2018,12,20,02,38,11.30
2018,12,20,02,39,14.50
2018,12,20,02,40,16.10
2018,12,20,02,41,12.90
2018,12,20,02,42,19.30
2018,12,20,02,43,16.10
2018,12,20,02,44,14.50
2018,12,20,02,45,14.50
2018,12,20,02,46,19.30
2018,12,20,02,47,14.50
2018,12,20,02,48,9.60
2018,12,20,02,49,11.30
2018,12,20,02,50,14.50
2018,12,20,02,51,9.60
2018,12,20,02,52,11.30
2018,12,20,02,53,8.10
2018,12,20,02,54,14.50
2018,12,20,02,55,12.90
2018,12,20,02,56,9.60
2018,12,20,02,57,3.20
2018,12,20,02,58,17.70
2018,12,20,02,59,9.60
2018,12,20,03,00,4.80
2018,12,20,03,01,8.10
2018,12,20,03,02,6.40
2018,12,20,03,03,6.40
2018,12,20,03,04,9.60
2018,12,20,03,05,4.80
2018,12,20,03,06,6.40
2018,12,20,03,07,8.10
2018,12,20,03,08,4.80
2018,12,20,03,09,14.50
2018,12,20,03,10,11.30
2018,12,20,03,11,8.10
2018,12,20,03,12,14.50
2018,12,20,03,13,11.30
2018,12,20,03,14,16.10
2018,12,20,03,15,16.10
2018,12,20,03,16,14.50
2018,12,20,03,17,11.30
2018,12,20,03,18,16.10
2018,12,20,03,19,19.30
2018,12,20,03,20,16.10
2018,12,20,03,21,16.10
2018,12,20,03,22,16.10
2018,12,20,03,23,12.90
2018,12,20,03,24,17.70
2018,12,20,03,25,11.30
2018,12,20,03,26,19.30
2018,12,20,03,27,19.30
2018,12,20,03,28,6.40
2018,12,20,03,29,9.60
2018,12,20,03,30,8.10
2018,12,20,03,31,8.10
2018,12,20,03,32,4.80
2018,12,20,03,33,8.10
2018,12,20,03,34,8.10
2018,12,20,03,35,8.10
2018,12,20,03,36,8.10
2018,12,20,03,37,8.10
2018,12,20,03,38,9.60
2018,12,20,03,39,4.80
2018,12,20,03,40,6.40
2018,12,20,03,41,3.20
2018,12,20,03,42,4.80
2018,12,20,03,43,4.80
2018,12,20,03,44,9.60
2018,12,20,03,45,4.80
2018,12,20,03,47,4.80
2018,12,20,03,48,3.20
2018,12,20,03,49,3.20
2018,12,20,03,50,4.80
2018,12,20,03,51,4.80
2018,12,20,03,52,3.20
2018,12,20,03,53,3.20
2018,12,20,03,54,3.20
2018,12,20,03,55,3.20
2018,12,20,03,56,1.60
2018,12,20,03,57,1.60
2018,12,20,03,58,1.60
2018,12,20,03,59,1.60
2018,12,20,04,00,1.60
2018,12,20,04,01,1.60
2018,12,20,04,02,1.60
2018,12,20,04,05,4.80
2018,12,20,04,06,4.80
2018,12,20,04,07,6.40
2018,12,20,04,08,6.40
2018,12,20,04,09,4.80
2018,12,20,04,10,6.40
2018,12,20,04,11,6.40
2018,12,20,04,12,9.60
2018,12,20,04,13,3.20
2018,12,20,04,14,3.20
2018,12,20,04,15,4.80
2018,12,20,04,20,1.60
2018,12,20,04,21,3.20
2018,12,20,04,22,4.80
2018,12,20,04,23,6.40
2018,12,20,04,24,6.40
2018,12,20,04,25,6.40
2018,12,20,04,26,8.10
2018,12,20,04,27,8.10
2018,12,20,04,28,4.80
2018,12,20,04,29,4.80
2018,12,20,04,30,4.80
2018,12,20,04,31,4.80
2018,12,20,04,32,4.80
2018,12,20,04,33,6.40
2018,12,20,04,34,8.10
2018,12,20,04,35,9.60
2018,12,20,04,36,3.20
2018,12,20,04,37,8.10
2018,12,20,04,38,4.80
2018,12,20,04,39,6.40
2018,12,20,04,40,3.20
2018,12,20,04,41,6.40
2018,12,20,04,42,4.80
2018,12,20,04,43,3.20
2018,12,20,04,44,3.20
2018,12,20,04,45,3.20
2018,12,20,04,46,4.80
2018,12,20,04,47,4.80
2018,12,20,04,48,3.20
2018,12,20,04,49,3.20
2018,12,20,04,50,4.80
2018,12,20,04,51,4.80
2018,12,20,04,52,4.80
2018,12,20,04,53,8.10
2018,12,20,04,54,8.10
2018,12,20,04,55,3.20
2018,12,20,04,56,6.40
2018,12,20,04,57,4.80
2018,12,20,04,58,4.80
2018,12,20,04,59,6.40
2018,12,20,05,00,4.80
2018,12,20,05,01,4.80
2018,12,20,05,02,4.80
2018,12,20,05,03,4.80
2018,12,20,05,04,3.20
2018,12,20,05,07,3.20
2018,12,20,05,08,3.20
2018,12,20,05,09,4.80
2018,12,20,05,14,3.20
2018,12,20,05,16,4.80
2018,12,20,05,28,3.20
2018,12,20,05,29,4.80
2018,12,20,05,30,4.80
2018,12,20,05,31,6.40
2018,12,20,05,32,3.20
2018,12,20,05,33,3.20
2018,12,20,05,34,4.80
2018,12,20,05,35,11.30
2018,12,20,05,36,9.60
2018,12,20,05,37,8.10
2018,12,20,05,38,11.30
2018,12,20,05,39,4.80
2018,12,20,05,40,3.20
2018,12,20,05,41,3.20
2018,12,20,05,42,3.20
2018,12,20,05,43,3.20
2018,12,20,05,44,1.60
2018,12,20,05,45,4.80
2018,12,20,05,46,4.80
2018,12,20,05,47,4.80
2018,12,20,05,48,3.20
2018,12,20,05,49,4.80
2018,12,20,05,50,9.60
2018,12,20,05,51,8.10
2018,12,20,05,52,6.40
2018,12,20,05,53,8.10
2018,12,20,05,54,6.40
2018,12,20,05,55,11.30
2018,12,20,05,56,9.60
2018,12,20,05,57,8.10
2018,12,20,05,58,8.10
2018,12,20,05,59,9.60
2018,12,20,06,00,6.40
2018,12,20,06,01,8.10
2018,12,20,06,02,4.80
2018,12,20,06,03,3.20
2018,12,20,06,04,1.60
2018,12,20,06,05,3.20
2018,12,20,06,06,1.60
2018,12,20,06,07,4.80
2018,12,20,06,08,1.60
2018,12,20,06,09,4.80
2018,12,20,06,10,4.80
2018,12,20,06,11,4.80
2018,12,20,06,12,4.80
2018,12,20,06,13,8.10
2018,12,20,06,14,6.40
2018,12,20,06,15,8.10
2018,12,20,06,17,3.20
2018,12,20,06,18,3.20
2018,12,20,06,19,3.20
2018,12,20,06,20,8.10
2018,12,20,06,21,8.10
2018,12,20,06,22,6.40
2018,12,20,06,23,4.80
2018,12,20,06,24,4.80
2018,12,20,06,25,4.80
2018,12,20,06,26,6.40
2018,12,20,06,27,8.10
2018,12,20,06,28,8.10
2018,12,20,06,29,4.80
2018,12,20,06,30,6.40
2018,12,20,06,31,4.80
2018,12,20,06,32,11.30
2018,12,20,06,33,11.30
2018,12,20,06,34,11.30
2018,12,20,06,35,11.30
2018,12,20,06,36,9.60
2018,12,20,06,37,6.40
2018,12,20,06,38,11.30
2018,12,20,06,39,11.30
2018,12,20,06,40,14.50
2018,12,20,06,41,14.50
2018,12,20,06,42,17.70
2018,12,20,06,43,14.50
2018,12,20,06,44,12.90
2018,12,20,06,45,12.90
2018,12,20,06,46,11.30
2018,12,20,06,47,9.60
2018,12,20,06,48,8.10
2018,12,20,06,49,6.40
2018,12,20,06,50,9.60
2018,12,20,06,51,6.40
2018,12,20,06,52,9.60
2018,12,20,06,53,9.60
2018,12,20,06,54,11.30
2018,12,20,06,55,20.90
2018,12,20,06,56,8.10
2018,12,20,06,57,11.30
2018,12,20,06,58,9.60
2018,12,20,06,59,8.10
2018,12,20,07,00,8.10
2018,12,20,07,01,6.40
2018,12,20,07,02,11.30
2018,12,20,07,03,11.30
2018,12,20,07,04,12.90
2018,12,20,07,05,8.10
2018,12,20,07,06,9.60
2018,12,20,07,07,12.90
2018,12,20,07,08,11.30
2018,12,20,07,09,9.60
2018,12,20,07,10,3.20
2018,12,20,07,11,9.60
2018,12,20,07,12,9.60
2018,12,20,07,13,6.40
2018,12,20,07,14,4.80
2018,12,20,07,15,9.60
2018,12,20,07,16,6.40
2018,12,20,07,17,4.80
2018,12,20,07,18,8.10
2018,12,20,07,19,6.40
2018,12,20,07,20,9.60
2018,12,20,07,21,9.60
2018,12,20,07,22,11.30
2018,12,20,07,23,4.80
2018,12,20,07,24,4.80
2018,12,20,07,25,8.10
2018,12,20,07,26,6.40
2018,12,20,07,27,6.40
2018,12,20,07,28,9.60
2018,12,20,07,29,8.10
2018,12,20,07,30,11.30
2018,12,20,07,31,6.40
2018,12,20,07,32,6.40
2018,12,20,07,33,8.10
2018,12,20,07,34,11.30
2018,12,20,07,35,8.10
2018,12,20,07,36,8.10
2018,12,20,07,37,8.10
2018,12,20,07,38,8.10
2018,12,20,07,39,8.10
2018,12,20,07,40,9.60
2018,12,20,07,41,9.60
2018,12,20,07,42,11.30
2018,12,20,07,43,6.40
2018,12,20,07,44,9.60
2018,12,20,07,45,8.10
2018,12,20,07,46,3.20
2018,12,20,07,47,8.10
2018,12,20,07,48,9.60
2018,12,20,07,49,9.60
2018,12,20,07,50,6.40
2018,12,20,07,51,6.40
2018,12,20,07,52,8.10
2018,12,20,07,53,9.60
2018,12,20,07,54,12.90
2018,12,20,07,55,11.30
2018,12,20,07,56,12.90
2018,12,20,07,57,4.80
2018,12,20,07,58,1.60
2018,12,20,07,59,1.60
2018,12,20,08,00,3.20
2018,12,20,08,01,8.10
2018,12,20,08,02,6.40
2018,12,20,08,03,4.80
2018,12,20,08,04,11.30
2018,12,20,08,05,14.50
2018,12,20,08,06,8.10
2018,12,20,08,07,8.10
2018,12,20,08,08,8.10
2018,12,20,08,09,8.10
2018,12,20,08,10,12.90
2018,12,20,08,11,12.90
2018,12,20,08,12,6.40
2018,12,20,08,13,8.10
2018,12,20,08,14,16.10
2018,12,20,08,15,9.60
2018,12,20,08,16,8.10
2018,12,20,08,17,11.30
2018,12,20,08,18,11.30
2018,12,20,08,19,11.30
2018,12,20,08,20,8.10
2018,12,20,08,21,8.10
2018,12,20,08,22,6.40
2018,12,20,08,23,6.40
2018,12,20,08,24,6.40
2018,12,20,08,25,4.80
2018,12,20,08,26,8.10
2018,12,20,08,27,9.60
2018,12,20,08,28,9.60
2018,12,20,08,29,8.10
2018,12,20,08,30,9.60
2018,12,20,08,31,9.60
2018,12,20,08,32,4.80
2018,12,20,08,33,9.60
2018,12,20,08,34,9.60
2018,12,20,08,35,6.40
2018,12,20,08,36,4.80
2018,12,20,08,37,9.60
2018,12,20,08,38,8.10
2018,12,20,08,39,9.60
2018,12,20,08,40,9.60
2018,12,20,08,41,9.60
2018,12,20,08,42,9.60
2018,12,20,08,43,9.60
2018,12,20,08,44,11.30
2018,12,20,08,45,9.60
2018,12,20,08,46,6.40
2018,12,20,08,47,11.30
2018,12,20,08,48,9.60
2018,12,20,08,49,8.10
2018,12,20,08,50,11.30
2018,12,20,08,51,12.90
2018,12,20,08,52,11.30
2018,12,20,08,53,8.10
2018,12,20,08,54,9.60
2018,12,20,08,55,11.30
2018,12,20,08,56,9.60
2018,12,20,08,57,8.10
2018,12,20,08,58,9.60
2018,12,20,08,59,11.30
2018,12,20,09,00,14.50
2018,12,20,09,01,12.90
2018,12,20,09,02,9.60
2018,12,20,09,03,8.10
2018,12,20,09,04,8.10
2018,12,20,09,05,11.30
2018,12,20,09,06,9.60
2018,12,20,09,07,14.50
2018,12,20,09,08,19.30
2018,12,20,09,09,11.30
2018,12,20,09,10,11.30
2018,12,20,09,11,8.10
2018,12,20,09,12,9.60
2018,12,20,09,13,16.10
2018,12,20,09,14,14.50
2018,12,20,09,15,8.10
2018,12,20,09,16,1.60
2018,12,20,09,17,8.10
2018,12,20,09,18,16.10
2018,12,20,09,19,11.30
2018,12,20,09,20,4.80
2018,12,20,09,21,9.60
2018,12,20,09,22,8.10
2018,12,20,09,23,9.60
2018,12,20,09,24,6.40
2018,12,20,09,25,6.40
2018,12,20,09,26,11.30
2018,12,20,09,27,11.30
2018,12,20,09,28,8.10
2018,12,20,09,29,6.40
2018,12,20,09,30,6.40
2018,12,20,09,31,4.80
2018,12,20,09,32,9.60
2018,12,20,09,33,11.30
2018,12,20,09,34,14.50
2018,12,20,09,35,6.40
2018,12,20,09,36,8.10
2018,12,20,09,37,4.80
2018,12,20,09,38,6.40
2018,12,20,09,39,12.90
2018,12,20,09,40,12.90
2018,12,20,09,41,8.10
2018,12,20,09,42,6.40
2018,12,20,09,43,12.90
2018,12,20,09,44,9.60
2018,12,20,09,45,9.60
2018,12,20,09,46,6.40
2018,12,20,09,47,6.40
2018,12,20,09,48,6.40
2018,12,20,09,49,8.10
2018,12,20,09,50,4.80
2018,12,20,09,51,4.80
2018,12,20,09,52,11.30
2018,12,20,09,53,12.90
2018,12,20,09,54,14.50
2018,12,20,09,55,14.50
2018,12,20,09,56,11.30
2018,12,20,09,57,9.60
2018,12,20,09,58,9.60
2018,12,20,09,59,6.40
2018,12,20,10,00,11.30
2018,12,20,10,01,9.60
2018,12,20,10,02,8.10
2018,12,20,10,03,4.80
2018,12,20,10,04,8.10
2018,12,20,10,05,4.80
2018,12,20,10,06,6.40
2018,12,20,10,07,8.10
2018,12,20,10,08,4.80
2018,12,20,10,09,3.20
2018,12,20,10,11,6.40
2018,12,20,10,12,6.40
2018,12,20,10,13,8.10
2018,12,20,10,14,4.80
2018,12,20,10,15,4.80
2018,12,20,10,16,8.10
2018,12,20,10,17,3.20
2018,12,20,10,18,6.40
2018,12,20,10,19,1.60
2018,12,20,10,20,3.20
2018,12,20,10,21,3.20
2018,12,20,10,22,4.80
2018,12,20,10,23,4.80
2018,12,20,10,24,4.80
2018,12,20,10,25,3.20
2018,12,20,10,26,1.60
2018,12,20,10,29,1.60
2018,12,20,10,33,3.20
2018,12,20,10,34,4.80
2018,12,20,10,35,3.20
2018,12,20,10,36,3.20
2018,12,20,10,37,4.80
2018,12,20,10,38,4.80
2018,12,20,10,39,4.80
2018,12,20,10,40,9.60
2018,12,20,10,41,11.30
2018,12,20,10,42,6.40
2018,12,20,10,43,4.80
2018,12,20,10,44,8.10
2018,12,20,10,45,6.40
2018,12,20,10,46,11.30
2018,12,20,10,47,9.60
2018,12,20,10,48,24.20
2018,12,20,10,49,12.90
2018,12,20,10,50,11.30
2018,12,20,10,51,11.30
2018,12,20,10,52,8.10
2018,12,20,10,53,12.90
2018,12,20,10,54,12.90
2018,12,20,10,55,11.30
2018,12,20,10,56,14.50
2018,12,20,10,57,16.10
2018,12,20,10,58,12.90
2018,12,20,10,59,22.50
2018,12,20,11,00,22.50
2018,12,20,11,01,17.70
2018,12,20,11,02,25.70
2018,12,20,11,03,22.50
2018,12,20,11,04,35.40
2018,12,20,11,05,22.50
2018,12,20,11,06,35.40
2018,12,20,11,07,27.40
2018,12,20,11,08,30.60
2018,12,20,11,09,30.60
2018,12,20,11,10,30.60
2018,12,20,11,11,29.00
2018,12,20,11,12,40.20
2018,12,20,11,13,32.20
2018,12,20,11,14,37.00
2018,12,20,11,15,35.40
2018,12,20,11,16,35.40
2018,12,20,11,17,35.40
2018,12,20,11,18,35.40
2018,12,20,11,19,20.90
2018,12,20,11,20,40.20
2018,12,20,11,21,37.00
2018,12,20,11,22,41.80
2018,12,20,11,23,41.80
2018,12,20,11,24,48.30
2018,12,20,11,25,56.30
2018,12,20,11,26,46.70
2018,12,20,11,27,43.50
2018,12,20,11,28,59.50
2018,12,20,11,29,37.00
2018,12,20,11,30,41.80
2018,12,20,11,31,48.30
2018,12,20,11,32,56.30
2018,12,20,11,33,32.20
2018,12,20,11,34,38.60
2018,12,20,11,35,41.80
2018,12,20,11,36,46.70
2018,12,20,11,37,45.10
2018,12,20,11,38,27.40
2018,12,20,11,39,32.20
2018,12,20,11,40,40.20
2018,12,20,11,41,33.80
2018,12,20,11,42,41.80
2018,12,20,11,43,38.60
2018,12,20,11,44,37.00
2018,12,20,11,45,45.10
2018,12,20,11,46,37.00
2018,12,20,11,47,32.20
2018,12,20,11,48,40.20
2018,12,20,11,49,29.00
2018,12,20,11,50,30.60
2018,12,20,11,51,17.70
2018,12,20,11,52,20.90
2018,12,20,11,53,40.20
2018,12,20,11,54,20.90
2018,12,20,11,55,17.70
2018,12,20,11,56,17.70
2018,12,20,11,57,20.90
2018,12,20,11,58,22.50
2018,12,20,11,59,45.10
2018,12,20,12,00,33.80
2018,12,20,12,01,33.80
2018,12,20,12,02,40.20
2018,12,20,12,03,33.80
2018,12,20,12,04,51.50
2018,12,20,12,05,38.60
2018,12,20,12,06,64.40
2018,12,20,12,07,33.80
2018,12,20,12,08,38.60
2018,12,20,12,09,48.30
2018,12,20,12,10,48.30
2018,12,20,12,11,74.00
2018,12,20,12,12,56.30
2018,12,20,12,13,49.90
2018,12,20,12,14,51.50
2018,12,20,12,15,38.60
2018,12,20,12,16,59.50
2018,12,20,12,17,43.50
2018,12,20,12,18,56.30
2018,12,20,12,19,38.60
2018,12,20,12,20,46.70
2018,12,20,12,21,41.80
2018,12,20,12,22,43.50
2018,12,20,12,23,25.70
2018,12,20,12,24,32.20
2018,12,20,12,25,37.00
2018,12,20,12,26,43.50
2018,12,20,12,27,41.80
2018,12,20,12,28,27.40
2018,12,20,12,29,37.00
2018,12,20,12,30,46.70
2018,12,20,12,31,51.50
2018,12,20,12,32,48.30
2018,12,20,12,33,25.70
2018,12,20,12,34,33.80
2018,12,20,12,35,46.70
2018,12,20,12,36,37.00
2018,12,20,12,37,35.40
2018,12,20,12,38,41.80
2018,12,20,12,39,32.20
2018,12,20,12,40,35.40
2018,12,20,12,41,46.70
2018,12,20,12,42,54.70
2018,12,20,12,43,30.60
2018,12,20,12,44,32.20
2018,12,20,12,45,32.20
2018,12,20,12,46,32.20
2018,12,20,12,47,32.20
2018,12,20,12,48,32.20
2018,12,20,12,49,32.20
2018,12,20,12,50,32.20
2018,12,20,12,51,32.20
2018,12,20,12,52,32.20
2018,12,20,12,53,32.20
2018,12,20,12,54,32.20
2018,12,20,13,10,27.40
2018,12,20,13,11,32.20
2018,12,20,13,12,51.50
2018,12,20,13,13,45.10
2018,12,20,13,14,51.50
2018,12,20,13,15,51.50
2018,12,20,13,16,43.50
2018,12,20,13,17,33.80
2018,12,20,13,18,49.90
2018,12,20,13,19,46.70
2018,12,20,13,20,48.30
2018,12,20,13,21,37.00
2018,12,20,13,22,29.00
2018,12,20,13,23,40.20
2018,12,20,13,24,33.80
2018,12,20,13,25,38.60
2018,12,20,13,26,51.50
2018,12,20,13,27,53.10
2018,12,20,13,28,66.00
2018,12,20,13,29,54.70
2018,12,20,13,30,40.20
2018,12,20,13,31,33.80
2018,12,20,13,32,30.60
2018,12,20,13,33,41.80
2018,12,20,13,34,30.60
2018,12,20,13,35,25.70
2018,12,20,13,36,37.00
2018,12,20,13,37,41.80
2018,12,20,13,38,41.80
2018,12,20,13,39,37.00
2018,12,20,13,40,27.40
2018,12,20,13,41,48.30
2018,12,20,13,42,53.10
2018,12,20,13,43,35.40
2018,12,20,13,44,43.50
2018,12,20,13,45,33.80
2018,12,20,13,46,38.60
2018,12,20,13,47,29.00
2018,12,20,13,48,30.60
2018,12,20,13,49,41.80
2018,12,20,13,50,40.20
2018,12,20,13,51,37.00
2018,12,20,13,52,35.40
2018,12,20,13,53,46.70
2018,12,20,13,54,37.00
2018,12,20,13,55,27.40
2018,12,20,13,56,33.80
2018,12,20,13,57,29.00
2018,12,20,13,58,35.40
2018,12,20,13,59,41.80
2018,12,20,14,00,57.90
2018,12,20,14,01,41.80
2018,12,20,14,02,32.20
2018,12,20,14,03,35.40
2018,12,20,14,04,27.40
2018,12,20,14,05,27.40
2018,12,20,14,06,32.20
2018,12,20,14,07,49.90
2018,12,20,14,08,67.60
2018,12,20,14,09,41.80
2018,12,20,14,10,59.50
2018,12,20,14,11,45.10
2018,12,20,14,12,51.50
2018,12,20,14,13,40.20
2018,12,20,14,14,38.60
2018,12,20,14,15,57.90
2018,12,20,14,16,35.40
2018,12,20,14,17,53.10
2018,12,20,14,18,46.70
2018,12,20,14,19,46.70
2018,12,20,14,20,41.80
2018,12,20,14,21,67.60
2018,12,20,14,22,53.10
2018,12,20,14,23,40.20
2018,12,20,14,24,41.80
2018,12,20,14,25,43.50
2018,12,20,14,26,56.30
2018,12,20,14,27,49.90
2018,12,20,14,28,61.20
2018,12,20,14,29,59.50
2018,12,20,14,30,43.50
2018,12,20,14,31,45.10
2018,12,20,14,32,54.70
2018,12,20,14,33,40.20
2018,12,20,14,34,43.50
2018,12,20,14,35,35.40
2018,12,20,14,36,46.70
2018,12,20,14,37,46.70
2018,12,20,14,38,41.80
2018,12,20,14,39,43.50
2018,12,20,14,40,61.20
2018,12,20,14,41,51.50
2018,12,20,14,42,41.80
2018,12,20,14,43,46.70
2018,12,20,14,44,43.50
2018,12,20,14,45,54.70
2018,12,20,14,46,59.50
2018,12,20,14,47,45.10
2018,12,20,14,48,43.50
2018,12,20,14,49,35.40
2018,12,20,14,50,51.50
2018,12,20,14,51,40.20
2018,12,20,14,52,25.70
2018,12,20,14,53,45.10
2018,12,20,14,54,46.70
2018,12,20,14,55,49.90
2018,12,20,14,56,48.30
2018,12,20,14,57,43.50
2018,12,20,14,58,37.00
2018,12,20,14,59,27.40
2018,12,20,15,00,24.20
2018,12,20,15,01,48.30
2018,12,20,15,02,49.90
2018,12,20,15,03,45.10
2018,12,20,15,04,33.80
2018,12,20,15,05,49.90
2018,12,20,15,06,30.60
2018,12,20,15,07,37.00
2018,12,20,15,08,37.00
2018,12,20,15,09,29.00
2018,12,20,15,10,25.70
2018,12,20,15,11,25.70
2018,12,20,15,12,38.60
2018,12,20,15,13,38.60
2018,12,20,15,14,41.80
2018,12,20,15,15,46.70
2018,12,20,15,16,46.70
2018,12,20,15,17,45.10
2018,12,20,15,18,37.00
2018,12,20,15,19,41.80
2018,12,20,15,20,46.70
2018,12,20,15,21,30.60
2018,12,20,15,22,38.60
2018,12,20,15,23,38.60
2018,12,20,15,24,35.40
2018,12,20,15,25,35.40
2018,12,20,15,26,33.80
2018,12,20,15,27,46.70
2018,12,20,15,28,51.50
2018,12,20,15,29,35.40
2018,12,20,15,30,43.50
2018,12,20,15,31,40.20
2018,12,20,15,32,53.10
2018,12,20,15,33,49.90
2018,12,20,15,34,43.50
2018,12,20,15,35,45.10
2018,12,20,15,36,38.60
2018,12,20,15,37,35.40
2018,12,20,15,38,45.10
2018,12,20,15,39,46.70
2018,12,20,15,40,48.30
2018,12,20,15,41,38.60
2018,12,20,15,42,38.60
2018,12,20,15,43,38.60
2018,12,20,15,44,48.30
2018,12,20,15,45,49.90
2018,12,20,15,46,51.50
2018,12,20,15,47,70.80
2018,12,20,15,48,43.50
2018,12,20,15,49,54.70
2018,12,20,15,50,57.90
2018,12,20,15,51,48.30
2018,12,20,15,52,40.20
2018,12,20,15,53,62.70
2018,12,20,15,54,53.10
2018,12,20,15,55,32.20
2018,12,20,15,56,56.30
2018,12,20,15,57,74.00
2018,12,20,15,58,37.00
2018,12,20,15,59,29.00
2018,12,20,16,00,49.90
2018,12,20,16,01,38.60
2018,12,20,16,02,35.40
2018,12,20,16,03,35.40
2018,12,20,16,04,27.40
2018,12,20,16,05,43.50
2018,12,20,16,06,46.70
2018,12,20,16,07,48.30
2018,12,20,16,08,40.20
2018,12,20,16,09,49.90
2018,12,20,16,10,48.30
2018,12,20,16,11,46.70
2018,12,20,16,12,25.70
2018,12,20,16,13,48.30
2018,12,20,16,14,51.50
2018,12,20,16,15,32.20
2018,12,20,16,16,20.90
2018,12,20,16,17,37.00
2018,12,20,16,18,35.40
2018,12,20,16,19,40.20
2018,12,20,16,20,40.20
2018,12,20,16,21,35.40
2018,12,20,16,22,17.70
2018,12,20,16,23,24.20
2018,12,20,16,24,9.60
2018,12,20,16,25,8.10
2018,12,20,16,26,14.50
2018,12,20,16,27,25.70
2018,12,20,16,28,27.40
2018,12,20,16,29,14.50
2018,12,20,16,30,17.70
2018,12,20,16,31,25.70
2018,12,20,16,32,19.30
2018,12,20,16,33,19.30
2018,12,20,16,34,17.70
2018,12,20,16,35,24.20
2018,12,20,16,36,24.20
2018,12,20,16,37,35.40
2018,12,20,16,38,27.40
2018,12,20,16,39,17.70
2018,12,20,16,40,30.60
2018,12,20,16,41,30.60
2018,12,20,16,42,24.20
2018,12,20,16,43,27.40
2018,12,20,16,44,32.20
2018,12,20,16,45,33.80
2018,12,20,16,46,24.20
2018,12,20,16,47,19.30
2018,12,20,16,48,12.90
2018,12,20,16,49,12.90
2018,12,20,16,50,14.50
2018,12,20,16,51,22.50
2018,12,20,16,52,24.20
2018,12,20,16,53,33.80
2018,12,20,16,54,25.70
2018,12,20,16,55,24.20
2018,12,20,16,56,29.00
2018,12,20,16,57,30.60
2018,12,20,16,58,25.70
2018,12,20,16,59,33.80
2018,12,20,17,00,29.00
2018,12,20,17,01,24.20
2018,12,20,17,02,30.60
2018,12,20,17,03,20.90
2018,12,20,17,04,24.20
2018,12,20,17,05,25.70
2018,12,20,17,06,20.90
2018,12,20,17,07,22.50
2018,12,20,17,08,20.90
2018,12,20,17,09,17.70
2018,12,20,17,10,17.70
2018,12,20,17,11,20.90
2018,12,20,17,12,16.10
2018,12,20,17,13,16.10
2018,12,20,17,14,30.60
2018,12,20,17,15,33.80
2018,12,20,17,16,25.70
2018,12,20,17,17,19.30
2018,12,20,17,18,17.70
2018,12,20,17,19,19.30
2018,12,20,17,20,19.30
2018,12,20,17,21,16.10
2018,12,20,17,22,12.90
2018,12,20,17,23,11.30
2018,12,20,17,24,19.30
2018,12,20,17,25,19.30
2018,12,20,17,26,19.30
2018,12,20,17,27,20.90
2018,12,20,17,28,20.90
2018,12,20,17,29,27.40
2018,12,20,17,30,27.40
2018,12,20,17,31,19.30
2018,12,20,17,32,17.70
2018,12,20,17,33,22.50
2018,12,20,17,34,19.30
2018,12,20,17,35,14.50
2018,12,20,17,36,25.70
2018,12,20,17,37,22.50
2018,12,20,17,38,19.30
2018,12,20,17,39,17.70
2018,12,20,17,40,16.10
2018,12,20,17,41,24.20
2018,12,20,17,42,24.20
2018,12,20,17,43,25.70
2018,12,20,17,44,37.00
2018,12,20,17,45,32.20
2018,12,20,17,46,29.00
2018,12,20,17,47,17.70
2018,12,20,17,48,19.30
2018,12,20,17,49,20.90
2018,12,20,17,50,35.40
2018,12,20,17,51,35.40
2018,12,20,17,52,29.00
2018,12,20,17,53,19.30
2018,12,20,17,54,16.10
2018,12,20,17,55,12.90
2018,12,20,17,56,22.50
2018,12,20,17,57,22.50
2018,12,20,17,58,20.90
2018,12,20,17,59,25.70
2018,12,20,18,00,17.70
2018,12,20,18,01,17.70
2018,12,20,18,02,25.70
2018,12,20,18,03,25.70
2018,12,20,18,04,22.50
2018,12,20,18,05,25.70
2018,12,20,18,06,27.40
2018,12,20,18,07,41.80
2018,12,20,18,08,43.50
2018,12,20,18,09,30.60
2018,12,20,18,10,22.50
2018,12,20,18,11,27.40
2018,12,20,18,12,16.10
2018,12,20,18,13,22.50
2018,12,20,18,14,27.40
2018,12,20,18,15,16.10
2018,12,20,18,16,24.20
2018,12,20,18,17,45.10
2018,12,20,18,18,30.60
2018,12,20,18,19,37.00
2018,12,20,18,20,29.00
2018,12,20,18,21,32.20
2018,12,20,18,22,27.40
2018,12,20,18,23,25.70
2018,12,20,18,24,25.70
2018,12,20,18,25,25.70
2018,12,20,18,26,35.40
2018,12,20,18,27,33.80
2018,12,20,18,28,32.20
2018,12,20,18,29,35.40
2018,12,20,18,30,32.20
2018,12,20,18,31,41.80
2018,12,20,18,32,37.00
2018,12,20,18,33,33.80
2018,12,20,18,34,29.00
2018,12,20,18,35,35.40
2018,12,20,18,36,25.70
2018,12,20,18,37,33.80
2018,12,20,18,38,35.40
2018,12,20,18,39,56.30
2018,12,20,18,40,35.40
2018,12,20,18,41,35.40
2018,12,20,18,42,35.40
2018,12,20,18,43,37.00
2018,12,20,18,44,37.00
2018,12,20,18,45,33.80
2018,12,20,18,46,40.20
2018,12,20,18,47,32.20
2018,12,20,18,48,33.80
2018,12,20,18,49,40.20
2018,12,20,18,50,32.20
2018,12,20,18,51,32.20
2018,12,20,18,52,38.60
2018,12,20,18,53,45.10
2018,12,20,18,54,45.10
2018,12,20,18,55,41.80
2018,12,20,18,56,35.40
2018,12,20,18,57,27.40
2018,12,20,18,58,38.60